| time (UTC) | temp F | wind direction | speed MPH | gust MPH | rain 1hr in | rain 24hr in | rain mn in | humidity % | barometer mb |
| 20260905100904 | 65 | 274 | 5.0 | 10.0 | 0.00 | 0.00 | 0.00 | 66 | 1024.5 |
| 20260905100404 | 64 | 297 | 5.0 | 9.0 | 0.00 | 0.00 | 0.00 | 63 | 1024.5 |
| 20260905095903 | 65 | 287 | 6.0 | 10.0 | 0.00 | 0.00 | 0.00 | 66 | 1024.3 |
| 20260905095404 | 65 | 276 | 5.0 | 9.0 | 0.00 | 0.00 | 0.00 | 64 | 1024.3 |
| 20260905094904 | 66 | 274 | 6.0 | 14.0 | 0.00 | 0.00 | 0.00 | 64 | 1024.3 |
| 20260905094405 | 65 | 278 | 5.0 | 9.0 | 0.00 | 0.00 | 0.00 | 68 | 1024.3 |
| 20260905093404 | 66 | 266 | 6.0 | 9.0 | 0.00 | 0.00 | 0.00 | 66 | 1024.3 |
| 20260905092904 | 66 | 291 | 7.0 | 10.0 | 0.00 | 0.00 | 0.00 | 66 | 1024.3 |
| 20260905092404 | 66 | 262 | 3.0 | 9.0 | 0.00 | 0.00 | 0.00 | 65 | 1024.2 |
| 20260905091904 | 66 | 271 | 4.0 | 12.0 | 0.00 | 0.00 | 0.00 | 68 | 1024.1 |
| 20260905091403 | 66 | 281 | 8.0 | 13.0 | 0.00 | 0.00 | 0.00 | 66 | 1024.1 |
| 20260905090904 | 66 | 278 | 5.0 | 7.0 | 0.00 | 0.00 | 0.00 | 71 | 1024.1 |
| 20260905090404 | 65 | 320 | 5.0 | 9.0 | 0.00 | 0.00 | 0.00 | 69 | 1024.1 |
| 20260905085904 | 65 | 300 | 6.0 | 13.0 | 0.00 | 0.00 | 0.00 | 69 | 1023.8 |
| 20260905085404 | 65 | 278 | 6.0 | 12.0 | 0.00 | 0.00 | 0.00 | 70 | 1023.8 |
| 20260905084904 | 64 | 301 | 7.0 | 10.0 | 0.00 | 0.00 | 0.00 | 70 | 1023.8 |
| 20260905084404 | 64 | 284 | 6.0 | 12.0 | 0.00 | 0.00 | 0.00 | 70 | 1023.8 |
| 20260905083403 | 64 | 265 | 5.0 | 9.0 | 0.00 | 0.00 | 0.00 | 72 | 1023.8 |
| 20260905082903 | 64 | 269 | 4.0 | 10.0 | 0.00 | 0.01 | 0.00 | 72 | 1023.8 |
| 20260905082404 | 64 | 290 | 6.0 | 10.0 | 0.00 | 0.02 | 0.00 | 72 | 1023.8 |
| 20260905081903 | 63 | 289 | 6.0 | 10.0 | 0.00 | 0.03 | 0.00 | 73 | 1023.8 |
| 20260905081404 | 63 | 268 | 4.0 | 10.0 | 0.00 | 0.06 | 0.00 | 74 | 1023.8 |
| 20260905080904 | 63 | 271 | 4.0 | 8.0 | 0.00 | 0.11 | 0.00 | 77 | 1023.5 |
| 20260905080405 | 62 | 287 | 6.0 | 10.0 | 0.00 | 0.11 | 0.00 | 77 | 1023.5 |
| 20260905075904 | 62 | 286 | 6.0 | 9.0 | 0.00 | 0.11 | 0.00 | 79 | 1023.5 |
| 20260905074904 | 61 | 292 | 5.0 | 9.0 | 0.00 | 0.11 | 0.00 | 80 | 1023.5 |
| 20260905073905 | 61 | 279 | 5.0 | 8.0 | 0.00 | 0.11 | 0.00 | 83 | 1023.4 |
| 20260905072904 | 60 | 268 | 5.0 | 8.0 | 0.00 | 0.11 | 0.00 | 84 | 1023.3 |
| 20260905072403 | 60 | 269 | 4.0 | 7.0 | 0.00 | 0.11 | 0.00 | 86 | 1023.2 |
| 20260905071904 | 59 | 288 | 5.0 | 6.0 | 0.00 | 0.11 | 0.00 | 87 | 1023.2 |
| 20260905070904 | 58 | 213 | 1.0 | 3.0 | 0.00 | 0.11 | 0.00 | 88 | 1022.9 |
| 20260905070404 | 58 | 209 | 2.0 | 3.0 | 0.00 | 0.11 | 0.00 | 88 | 1022.9 |
| 20260905065904 | 58 | 214 | 2.0 | 3.0 | 0.00 | 0.11 | 0.00 | 88 | 1022.9 |
| 20260905064903 | 58 | 209 | 2.0 | 3.0 | 0.00 | 0.11 | 0.00 | 88 | 1022.9 |
| 20260905063904 | 57 | 211 | 2.0 | 3.0 | 0.00 | 0.11 | 0.00 | 88 | 1022.9 |
| 20260905063403 | 57 | 238 | 1.0 | 2.0 | 0.00 | 0.11 | 0.00 | 88 | 1022.9 |
| 20260905062904 | 57 | 223 | 0.0 | 2.0 | 0.00 | 0.11 | 0.00 | 88 | 1022.9 |
| 20260905062405 | 57 | 221 | 2.0 | 3.0 | 0.00 | 0.11 | 0.00 | 88 | 1022.9 |
| 20260905061904 | 57 | 225 | 1.0 | 3.0 | 0.00 | 0.11 | 0.00 | 88 | 1022.7 |
| 20260905061404 | 57 | 226 | 0.0 | 3.0 | 0.00 | 0.11 | 0.00 | 87 | 1022.7 |
| 20260905060904 | 57 | 222 | 0.0 | 0.0 | 0.00 | 0.11 | 0.00 | 87 | 1022.7 |
| 20260905060404 | 57 | 222 | 0.0 | 0.0 | 0.00 | 0.11 | 0.00 | 87 | 1022.7 |
| 20260905055404 | 57 | 222 | 1.0 | 3.0 | 0.00 | 0.11 | 0.00 | 86 | 1022.6 |
| 20260905054405 | 57 | 221 | 1.0 | 2.0 | 0.00 | 0.11 | 0.00 | 86 | 1022.6 |
| 20260905052904 | 57 | 218 | 1.0 | 3.0 | 0.00 | 0.11 | 0.00 | 86 | 1022.3 |
| 20260905052403 | 58 | 230 | 1.0 | 2.0 | 0.00 | 0.11 | 0.00 | 86 | 1022.3 |
| 20260905051904 | 58 | 220 | 1.0 | 3.0 | 0.00 | 0.11 | 0.00 | 86 | 1022.3 |
| 20260905051404 | 58 | 264 | 1.0 | 1.0 | 0.00 | 0.11 | 0.00 | 86 | 1022.3 |
| 20260905050904 | 58 | 264 | 1.0 | 2.0 | 0.00 | 0.11 | 0.00 | 86 | 1022.2 |
| 20260905050403 | 58 | 220 | 0.0 | 1.0 | 0.00 | 0.11 | 0.00 | 85 | 1022.2 |
| 20260905045904 | 58 | 211 | 2.0 | 3.0 | 0.00 | 0.11 | 0.00 | 85 | 1022.2 |
| 20260905045404 | 58 | 221 | 2.0 | 5.0 | 0.00 | 0.11 | 0.00 | 85 | 1022.0 |
| 20260905044904 | 58 | 222 | 3.0 | 5.0 | 0.00 | 0.11 | 0.00 | 85 | 1022.0 |
| 20260905044404 | 58 | 222 | 3.0 | 6.0 | 0.00 | 0.11 | 0.00 | 85 | 1021.9 |
| 20260905043904 | 58 | 207 | 3.0 | 6.0 | 0.00 | 0.11 | 0.00 | 85 | 1021.9 |
| 20260905043403 | 58 | 204 | 3.0 | 7.0 | 0.00 | 0.11 | 0.00 | 84 | 1021.9 |
| 20260905042904 | 58 | 201 | 3.0 | 7.0 | 0.00 | 0.11 | 0.00 | 84 | 1021.8 |
| 20260905041904 | 58 | 205 | 2.0 | 5.0 | 0.00 | 0.11 | 0.00 | 84 | 1021.8 |
| 20260905041404 | 58 | 229 | 2.0 | 5.0 | 0.00 | 0.11 | 0.00 | 84 | 1021.6 |
| 20260905040904 | 58 | 228 | 0.0 | 0.0 | 0.00 | 0.11 | 0.00 | 84 | 1021.6 |
| 20260905040404 | 58 | 243 | 0.0 | 5.0 | 0.00 | 0.11 | 0.00 | 84 | 1021.6 |
| 20260905035904 | 58 | 225 | 1.0 | 3.0 | 0.00 | 0.11 | 0.00 | 84 | 1021.6 |
| 20260905035404 | 58 | 247 | 1.0 | 5.0 | 0.00 | 0.11 | 0.00 | 84 | 1021.6 |
| 20260905034904 | 58 | 251 | 1.0 | 3.0 | 0.00 | 0.11 | 0.00 | 84 | 1021.5 |
| 20260905034403 | 59 | 285 | 2.0 | 5.0 | 0.00 | 0.11 | 0.00 | 84 | 1021.4 |
| 20260905033904 | 59 | 270 | 3.0 | 6.0 | 0.00 | 0.11 | 0.00 | 84 | 1021.4 |
| 20260905033405 | 59 | 261 | 2.0 | 3.0 | 0.00 | 0.11 | 0.00 | 84 | 1021.4 |
| 20260905032904 | 59 | 266 | 3.0 | 8.0 | 0.00 | 0.11 | 0.00 | 84 | 1021.4 |
| 20260905032404 | 59 | 276 | 3.0 | 6.0 | 0.00 | 0.11 | 0.00 | 84 | 1021.4 |
| 20260905031903 | 59 | 282 | 1.0 | 6.0 | 0.00 | 0.11 | 0.00 | 84 | 1021.4 |
| 20260905031404 | 59 | 245 | 1.0 | 3.0 | 0.00 | 0.11 | 0.00 | 84 | 1021.3 |
| 20260905030904 | 59 | 267 | 1.0 | 3.0 | 0.00 | 0.11 | 0.00 | 84 | 1021.1 |
| 20260905030403 | 58 | 265 | 2.0 | 6.0 | 0.00 | 0.11 | 0.00 | 84 | 1021.1 |
| 20260905025904 | 58 | 252 | 2.0 | 3.0 | 0.00 | 0.11 | 0.00 | 84 | 1021.0 |
| 20260905025404 | 58 | 269 | 2.0 | 5.0 | 0.00 | 0.11 | 0.00 | 84 | 1021.0 |
| 20260905024404 | 58 | 211 | 1.0 | 6.0 | 0.00 | 0.11 | 0.00 | 85 | 1021.0 |
| 20260905023904 | 58 | 253 | 2.0 | 5.0 | 0.00 | 0.11 | 0.00 | 85 | 1021.0 |
| 20260905023404 | 58 | 269 | 2.0 | 5.0 | 0.00 | 0.12 | 0.00 | 85 | 1021.0 |
| 20260905022904 | 58 | 258 | 2.0 | 5.0 | 0.00 | 0.12 | 0.00 | 85 | 1021.0 |
| 20260905022404 | 57 | 233 | 1.0 | 3.0 | 0.00 | 0.12 | 0.00 | 85 | 1020.7 |
| 20260905021904 | 57 | 237 | 0.0 | 7.0 | 0.00 | 0.12 | 0.00 | 85 | 1020.7 |
| 20260905021404 | 57 | 258 | 3.0 | 6.0 | 0.00 | 0.12 | 0.00 | 85 | 1020.7 |
| 20260905020404 | 57 | 271 | 2.0 | 5.0 | 0.00 | 0.12 | 0.00 | 85 | 1020.7 |
| 20260905015904 | 57 | 216 | 2.0 | 5.0 | 0.00 | 0.12 | 0.00 | 86 | 1020.7 |
| 20260905015404 | 57 | 230 | 2.0 | 5.0 | 0.00 | 0.12 | 0.00 | 86 | 1020.7 |
| 20260905014904 | 57 | 237 | 0.0 | 2.0 | 0.00 | 0.13 | 0.00 | 86 | 1020.7 |
| 20260905014404 | 57 | 243 | 1.0 | 3.0 | 0.00 | 0.13 | 0.00 | 85 | 1020.7 |
| 20260905013904 | 57 | 218 | 2.0 | 5.0 | 0.00 | 0.13 | 0.00 | 85 | 1020.6 |
| 20260905012404 | 57 | 251 | 1.0 | 3.0 | 0.00 | 0.13 | 0.00 | 85 | 1020.6 |
| 20260905011904 | 57 | 238 | 1.0 | 2.0 | 0.00 | 0.13 | 0.00 | 85 | 1020.5 |
| 20260905011403 | 57 | 236 | 1.0 | 5.0 | 0.00 | 0.13 | 0.00 | 85 | 1020.5 |
| 20260905010403 | 57 | 216 | 2.0 | 3.0 | 0.00 | 0.13 | 0.00 | 84 | 1020.5 |
| 20260905005904 | 58 | 205 | 2.0 | 3.0 | 0.00 | 0.13 | 0.00 | 84 | 1020.5 |
| 20260905004904 | 58 | 248 | 2.0 | 5.0 | 0.00 | 0.13 | 0.00 | 84 | 1020.5 |
| 20260905004404 | 58 | 249 | 2.0 | 5.0 | 0.00 | 0.13 | 0.00 | 84 | 1020.4 |
| 20260905003904 | 58 | 266 | 1.0 | 3.0 | 0.00 | 0.13 | 0.00 | 83 | 1020.4 |
| 20260905003404 | 58 | 185 | 2.0 | 5.0 | 0.00 | 0.13 | 0.00 | 83 | 1020.4 |
| 20260905002404 | 58 | 251 | 2.0 | 3.0 | 0.00 | 0.13 | 0.00 | 83 | 1020.4 |
| 20260905001904 | 58 | 223 | 2.0 | 3.0 | 0.00 | 0.13 | 0.00 | 82 | 1020.4 |
| 20260905001404 | 59 | 253 | 2.0 | 5.0 | 0.00 | 0.13 | 0.00 | 82 | 1020.4 |
| 20260905000904 | 59 | 238 | 2.0 | 6.0 | 0.00 | 0.13 | 0.00 | 82 | 1020.4 |
| 20260905000404 | 59 | 227 | 2.0 | 5.0 | 0.00 | 0.13 | 0.00 | 82 | 1020.3 |
| 20260904235904 | 59 | 245 | 2.0 | 6.0 | 0.00 | 0.13 | 0.00 | 82 | 1020.3 |
| 20260904235404 | 59 | 210 | 3.0 | 5.0 | 0.00 | 0.13 | 0.00 | 82 | 1020.3 |
| 20260904234403 | 59 | 254 | 2.0 | 6.0 | 0.00 | 0.13 | 0.00 | 81 | 1020.1 |
| 20260904233904 | 59 | 240 | 2.0 | 6.0 | 0.00 | 0.13 | 0.00 | 81 | 1020.1 |
| 20260904233403 | 59 | 253 | 2.0 | 6.0 | 0.00 | 0.13 | 0.00 | 81 | 1020.1 |
| 20260904232904 | 59 | 250 | 3.0 | 6.0 | 0.00 | 0.13 | 0.00 | 81 | 1020.1 |
| 20260904232404 | 59 | 255 | 2.0 | 6.0 | 0.00 | 0.13 | 0.00 | 81 | 1020.1 |
| 20260904231903 | 59 | 255 | 3.0 | 7.0 | 0.00 | 0.13 | 0.00 | 81 | 1020.1 |
| 20260904231404 | 59 | 247 | 3.0 | 6.0 | 0.00 | 0.13 | 0.00 | 81 | 1020.1 |
| 20260904230903 | 59 | 222 | 2.0 | 9.0 | 0.00 | 0.13 | 0.00 | 81 | 1020.1 |
| 20260904230404 | 59 | 242 | 2.0 | 7.0 | 0.00 | 0.13 | 0.00 | 81 | 1020.0 |
| 20260904225904 | 59 | 238 | 2.0 | 6.0 | 0.00 | 0.13 | 0.13 | 81 | 1020.0 |
| 20260904224904 | 59 | 271 | 4.0 | 12.0 | 0.00 | 0.13 | 0.13 | 81 | 1019.8 |
| 20260904224404 | 59 | 231 | 3.0 | 6.0 | 0.00 | 0.13 | 0.13 | 81 | 1019.8 |
| 20260904223904 | 59 | 255 | 2.0 | 6.0 | 0.00 | 0.13 | 0.13 | 81 | 1019.8 |
| 20260904223404 | 59 | 242 | 2.0 | 5.0 | 0.00 | 0.13 | 0.13 | 81 | 1019.8 |
| 20260904222904 | 59 | 261 | 2.0 | 7.0 | 0.00 | 0.13 | 0.13 | 81 | 1019.7 |
| 20260904222404 | 59 | 234 | 2.0 | 6.0 | 0.00 | 0.13 | 0.13 | 81 | 1019.7 |
| 20260904221904 | 59 | 258 | 2.0 | 6.0 | 0.00 | 0.13 | 0.13 | 81 | 1019.7 |
| 20260904221404 | 59 | 225 | 2.0 | 6.0 | 0.00 | 0.13 | 0.13 | 81 | 1019.7 |
| 20260904220904 | 59 | 227 | 3.0 | 8.0 | 0.00 | 0.13 | 0.13 | 81 | 1019.7 |
| 20260904220404 | 59 | 243 | 2.0 | 5.0 | 0.00 | 0.13 | 0.13 | 81 | 1019.7 |
| 20260904215905 | 59 | 245 | 2.0 | 3.0 | 0.00 | 0.13 | 0.13 | 81 | 1019.4 |
| 20260904215404 | 59 | 252 | 2.0 | 3.0 | 0.00 | 0.13 | 0.13 | 80 | 1019.4 |
| 20260904214904 | 59 | 244 | 2.0 | 5.0 | 0.00 | 0.13 | 0.13 | 80 | 1019.4 |
| 20260904214404 | 59 | 246 | 2.0 | 3.0 | 0.00 | 0.13 | 0.13 | 80 | 1019.4 |
| 20260904213904 | 59 | 214 | 2.0 | 3.0 | 0.00 | 0.13 | 0.13 | 79 | 1019.4 |
| 20260904213404 | 59 | 242 | 2.0 | 5.0 | 0.00 | 0.13 | 0.13 | 79 | 1019.4 |
| 20260904212904 | 59 | 256 | 2.0 | 3.0 | 0.00 | 0.13 | 0.13 | 79 | 1019.4 |
| 20260904211904 | 60 | 232 | 1.0 | 3.0 | 0.00 | 0.13 | 0.13 | 78 | 1019.4 |
| 20260904211404 | 60 | 215 | 2.0 | 3.0 | 0.00 | 0.13 | 0.13 | 77 | 1018.5 |
| 20260904210904 | 60 | 247 | 1.0 | 3.0 | 0.00 | 0.13 | 0.13 | 77 | 1018.5 |
| 20260904210403 | 60 | 250 | 3.0 | 6.0 | 0.00 | 0.13 | 0.13 | 77 | 1018.5 |
| 20260904205904 | 60 | 257 | 2.0 | 6.0 | 0.00 | 0.13 | 0.13 | 76 | 1018.5 |
| 20260904205404 | 60 | 259 | 3.0 | 6.0 | 0.00 | 0.13 | 0.13 | 76 | 1018.5 |
| 20260904204903 | 60 | 278 | 3.0 | 10.0 | 0.00 | 0.13 | 0.13 | 75 | 1018.5 |
| 20260904204403 | 61 | 260 | 2.0 | 5.0 | 0.00 | 0.13 | 0.13 | 75 | 1018.5 |
| 20260904203904 | 61 | 240 | 2.0 | 6.0 | 0.00 | 0.13 | 0.13 | 74 | 1018.5 |
| 20260904202903 | 61 | 247 | 2.0 | 5.0 | 0.00 | 0.13 | 0.13 | 74 | 1018.5 |
| 20260904201903 | 61 | 238 | 4.0 | 9.0 | 0.00 | 0.13 | 0.13 | 73 | 1018.5 |
| 20260904200904 | 62 | 280 | 7.0 | 13.0 | 0.00 | 0.13 | 0.13 | 73 | 1018.5 |
| 20260904200404 | 62 | 274 | 7.0 | 14.0 | 0.00 | 0.13 | 0.13 | 73 | 1018.5 |
| 20260904195904 | 62 | 261 | 5.0 | 10.0 | 0.00 | 0.13 | 0.13 | 72 | 1018.5 |
| 20260904194904 | 62 | 254 | 4.0 | 9.0 | 0.00 | 0.13 | 0.13 | 71 | 1018.5 |
| 20260904193904 | 62 | 272 | 9.0 | 14.0 | 0.00 | 0.13 | 0.13 | 71 | 1018.3 |
| 20260904193403 | 63 | 259 | 7.0 | 16.0 | 0.00 | 0.13 | 0.13 | 70 | 1018.3 |
| 20260904192904 | 63 | 280 | 7.0 | 15.0 | 0.00 | 0.13 | 0.13 | 71 | 1017.8 |
| 20260904192404 | 63 | 258 | 3.0 | 10.0 | 0.00 | 0.13 | 0.13 | 71 | 1017.8 |
| 20260904191903 | 63 | 257 | 5.0 | 12.0 | 0.00 | 0.13 | 0.13 | 71 | 1017.8 |
| 20260904191404 | 63 | 243 | 4.0 | 12.0 | 0.00 | 0.13 | 0.13 | 71 | 1017.8 |
| 20260904190903 | 63 | 236 | 2.0 | 6.0 | 0.00 | 0.13 | 0.13 | 70 | 1017.8 |
| 20260904190404 | 63 | 262 | 3.0 | 9.0 | 0.00 | 0.13 | 0.13 | 70 | 1017.8 |
| 20260904185903 | 64 | 242 | 3.0 | 10.0 | 0.00 | 0.13 | 0.13 | 70 | 1017.8 |
| 20260904185404 | 64 | 250 | 4.0 | 8.0 | 0.00 | 0.13 | 0.13 | 69 | 1017.8 |
| 20260904184903 | 64 | 255 | 3.0 | 9.0 | 0.00 | 0.13 | 0.13 | 69 | 1017.8 |
| 20260904184404 | 64 | 242 | 3.0 | 9.0 | 0.00 | 0.13 | 0.13 | 69 | 1017.8 |
| 20260904183404 | 64 | 244 | 3.0 | 8.0 | 0.00 | 0.13 | 0.13 | 69 | 1017.8 |
| 20260904182903 | 64 | 283 | 7.0 | 13.0 | 0.00 | 0.13 | 0.13 | 69 | 1017.8 |
| 20260904182404 | 64 | 267 | 3.0 | 8.0 | 0.00 | 0.13 | 0.13 | 68 | 1017.5 |
| 20260904181904 | 64 | 279 | 5.0 | 9.0 | 0.00 | 0.13 | 0.13 | 68 | 1017.2 |
| 20260904181405 | 64 | 268 | 6.0 | 12.0 | 0.00 | 0.13 | 0.13 | 68 | 1017.2 |
| 20260904175903 | 64 | 278 | 7.0 | 12.0 | 0.00 | 0.13 | 0.13 | 69 | 1017.1 |
| 20260904175403 | 64 | 278 | 6.0 | 15.0 | 0.00 | 0.13 | 0.13 | 70 | 1016.9 |
| 20260904174904 | 65 | 284 | 6.0 | 10.0 | 0.00 | 0.13 | 0.13 | 70 | 1016.9 |
| 20260904174404 | 65 | 278 | 6.0 | 12.0 | 0.00 | 0.13 | 0.13 | 71 | 1016.9 |
| 20260904173904 | 65 | 275 | 7.0 | 12.0 | 0.00 | 0.13 | 0.13 | 70 | 1016.9 |
| 20260904173404 | 65 | 284 | 6.0 | 10.0 | 0.00 | 0.13 | 0.13 | 70 | 1016.8 |
| 20260904172904 | 65 | 284 | 5.0 | 10.0 | 0.00 | 0.13 | 0.13 | 70 | 1016.8 |
| 20260904172404 | 65 | 271 | 6.0 | 8.0 | 0.00 | 0.13 | 0.13 | 70 | 1016.8 |
| 20260904171904 | 65 | 234 | 4.0 | 9.0 | 0.00 | 0.13 | 0.13 | 69 | 1016.8 |
| 20260904171404 | 65 | 271 | 5.0 | 8.0 | 0.00 | 0.13 | 0.13 | 69 | 1016.9 |
| 20260904170904 | 65 | 264 | 3.0 | 10.0 | 0.00 | 0.13 | 0.13 | 70 | 1016.9 |
| 20260904170404 | 65 | 267 | 9.0 | 14.0 | 0.00 | 0.13 | 0.13 | 69 | 1016.9 |
| 20260904165904 | 65 | 275 | 5.0 | 14.0 | 0.00 | 0.13 | 0.13 | 70 | 1016.9 |
| 20260904165404 | 66 | 281 | 5.0 | 10.0 | 0.00 | 0.13 | 0.13 | 70 | 1016.8 |
| 20260904164903 | 65 | 278 | 7.0 | 13.0 | 0.00 | 0.13 | 0.13 | 69 | 1016.8 |
| 20260904163404 | 66 | 288 | 7.0 | 12.0 | 0.00 | 0.13 | 0.13 | 68 | 1016.9 |
| 20260904162903 | 66 | 288 | 7.0 | 15.0 | 0.00 | 0.13 | 0.13 | 68 | 1016.6 |
| 20260904162404 | 66 | 279 | 6.0 | 12.0 | 0.00 | 0.13 | 0.13 | 67 | 1016.6 |
| 20260904161904 | 66 | 293 | 8.0 | 14.0 | 0.00 | 0.13 | 0.13 | 68 | 1016.6 |
| 20260904161404 | 66 | 277 | 10.0 | 14.0 | 0.00 | 0.13 | 0.13 | 67 | 1016.6 |
| 20260904155904 | 66 | 285 | 7.0 | 14.0 | 0.00 | 0.13 | 0.13 | 68 | 1016.5 |
| 20260904155404 | 66 | 276 | 7.0 | 13.0 | 0.00 | 0.13 | 0.13 | 69 | 1016.5 |
| 20260904154404 | 66 | 281 | 7.0 | 13.0 | 0.00 | 0.13 | 0.13 | 70 | 1016.0 |
| 20260904153404 | 66 | 298 | 9.0 | 15.0 | 0.00 | 0.13 | 0.13 | 71 | 1016.0 |
| 20260904152903 | 66 | 279 | 9.0 | 13.0 | 0.00 | 0.13 | 0.13 | 71 | 1016.0 |
| 20260904152404 | 66 | 283 | 7.0 | 15.0 | 0.00 | 0.13 | 0.13 | 71 | 1016.0 |
| 20260904151904 | 66 | 292 | 8.0 | 14.0 | 0.00 | 0.13 | 0.13 | 72 | 1016.0 |
| 20260904151404 | 67 | 301 | 10.0 | 14.0 | 0.00 | 0.13 | 0.13 | 72 | 1016.0 |
| 20260904150904 | 67 | 294 | 9.0 | 15.0 | 0.00 | 0.13 | 0.13 | 72 | 1016.0 |
| 20260904150404 | 67 | 272 | 6.0 | 9.0 | 0.00 | 0.13 | 0.13 | 72 | 1016.0 |
| 20260904145904 | 67 | 316 | 9.0 | 14.0 | 0.00 | 0.13 | 0.13 | 71 | 1016.0 |
| 20260904144903 | 68 | 283 | 8.0 | 12.0 | 0.00 | 0.13 | 0.13 | 72 | 1016.0 |
| 20260904144404 | 68 | 271 | 7.0 | 15.0 | 0.00 | 0.13 | 0.13 | 72 | 1016.0 |
| 20260904143904 | 68 | 279 | 9.0 | 17.0 | 0.00 | 0.13 | 0.13 | 71 | 1016.1 |
| 20260904143404 | 68 | 276 | 11.0 | 17.0 | 0.00 | 0.13 | 0.13 | 71 | 1016.1 |
| 20260904142403 | 69 | 290 | 12.0 | 17.0 | 0.00 | 0.13 | 0.13 | 70 | 1015.9 |
| 20260904141903 | 69 | 291 | 10.0 | 15.0 | 0.00 | 0.13 | 0.13 | 70 | 1015.7 |
| 20260904141404 | 70 | 303 | 8.0 | 14.0 | 0.00 | 0.13 | 0.13 | 70 | 1015.7 |
| 20260904140404 | 70 | 275 | 10.0 | 15.0 | 0.00 | 0.13 | 0.13 | 67 | 1015.7 |
| 20260904135904 | 71 | 262 | 10.0 | 16.0 | 0.00 | 0.13 | 0.13 | 66 | 1015.4 |
| 20260904134904 | 71 | 272 | 6.0 | 14.0 | 0.00 | 0.13 | 0.13 | 63 | 1015.3 |
| 20260904134404 | 71 | 261 | 7.0 | 15.0 | 0.00 | 0.13 | 0.13 | 66 | 1015.3 |
| 20260904133903 | 71 | 277 | 6.0 | 12.0 | 0.00 | 0.13 | 0.13 | 67 | 1015.3 |
| 20260904133404 | 72 | 226 | 5.0 | 15.0 | 0.00 | 0.13 | 0.13 | 67 | 1015.3 |
| 20260904132903 | 72 | 253 | 9.0 | 15.0 | 0.00 | 0.13 | 0.13 | 69 | 1015.2 |
| 20260904132403 | 72 | 278 | 8.0 | 14.0 | 0.00 | 0.13 | 0.13 | 69 | 1015.2 |
| 20260904131904 | 71 | 258 | 5.0 | 13.0 | 0.00 | 0.13 | 0.13 | 70 | 1015.2 |
| 20260904131404 | 71 | 260 | 6.0 | 17.0 | 0.00 | 0.13 | 0.13 | 69 | 1015.3 |
| 20260904130903 | 71 | 267 | 6.0 | 17.0 | 0.00 | 0.13 | 0.13 | 72 | 1015.3 |
| 20260904130404 | 71 | 287 | 10.0 | 14.0 | 0.00 | 0.13 | 0.13 | 72 | 1015.3 |
| 20260904125904 | 71 | 259 | 6.0 | 15.0 | 0.00 | 0.13 | 0.13 | 72 | 1014.8 |
| 20260904125403 | 71 | 268 | 7.0 | 15.0 | 0.00 | 0.13 | 0.13 | 74 | 1014.8 |
| 20260904124404 | 71 | 290 | 8.0 | 15.0 | 0.00 | 0.13 | 0.13 | 75 | 1014.8 |
| 20260904123903 | 70 | 274 | 7.0 | 15.0 | 0.00 | 0.13 | 0.13 | 77 | 1014.8 |
| 20260904122904 | 70 | 291 | 10.0 | 17.0 | 0.00 | 0.13 | 0.13 | 75 | 1014.8 |
| 20260904122403 | 71 | 283 | 10.0 | 15.0 | 0.00 | 0.13 | 0.13 | 76 | 1014.8 |
| 20260904121904 | 72 | 278 | 9.0 | 15.0 | 0.00 | 0.13 | 0.13 | 76 | 1014.2 |
| 20260904120904 | 71 | 254 | 4.0 | 16.0 | 0.00 | 0.13 | 0.13 | 81 | 1014.2 |
| 20260904120404 | 71 | 283 | 6.0 | 12.0 | 0.00 | 0.13 | 0.13 | 81 | 1014.2 |
| 20260904115904 | 70 | 257 | 9.0 | 14.0 | 0.00 | 0.13 | 0.13 | 82 | 1014.2 |
| 20260904115403 | 69 | 289 | 9.0 | 15.0 | 0.00 | 0.13 | 0.13 | 82 | 1014.2 |
| 20260904114404 | 70 | 252 | 10.0 | 15.0 | 0.00 | 0.13 | 0.13 | 82 | 1014.2 |
| 20260904113903 | 70 | 249 | 4.0 | 9.0 | 0.00 | 0.13 | 0.13 | 85 | 1014.2 |
| 20260904112904 | 68 | 267 | 7.0 | 14.0 | 0.00 | 0.13 | 0.13 | 88 | 1014.2 |
| 20260904112403 | 67 | 288 | 6.0 | 9.0 | 0.00 | 0.13 | 0.13 | 90 | 1014.2 |
| 20260904111904 | 66 | 291 | 6.0 | 10.0 | 0.00 | 0.13 | 0.13 | 89 | 1014.2 |
| 20260904111404 | 66 | 284 | 7.0 | 9.0 | 0.00 | 0.13 | 0.13 | 89 | 1014.2 |
| 20260904110903 | 66 | 276 | 9.0 | 12.0 | 0.00 | 0.13 | 0.13 | 88 | 1014.2 |
| 20260904110404 | 67 | 285 | 7.0 | 13.0 | 0.00 | 0.13 | 0.13 | 88 | 1014.2 |
| 20260904105903 | 67 | 277 | 5.0 | 9.0 | 0.00 | 0.13 | 0.13 | 88 | 1014.2 |
| 20260904105404 | 67 | 278 | 5.0 | 7.0 | 0.00 | 0.13 | 0.13 | 88 | 1014.2 |
| 20260904104904 | 67 | 292 | 5.0 | 8.0 | 0.00 | 0.13 | 0.13 | 89 | 1014.3 |
| 20260904104404 | 67 | 239 | 4.0 | 8.0 | 0.00 | 0.13 | 0.13 | 90 | 1014.3 |
| 20260904103903 | 67 | 311 | 6.0 | 9.0 | 0.00 | 0.13 | 0.13 | 90 | 1014.2 |
| 20260904103404 | 67 | 315 | 4.0 | 7.0 | 0.00 | 0.13 | 0.13 | 90 | 1014.2 |
| 20260904102904 | 67 | 269 | 4.0 | 8.0 | 0.00 | 0.13 | 0.13 | 91 | 1014.2 |
| 20260904102404 | 67 | 243 | 3.0 | 6.0 | 0.00 | 0.13 | 0.13 | 92 | 1014.2 |
| 20260904101905 | 67 | 270 | 3.0 | 9.0 | 0.00 | 0.13 | 0.13 | 92 | 1014.2 |